When you browse on this site, cookies collect data to enhance your experience and personalize the content and advertising you see.
Visit our Privacy Policy to learn more. By continuing to use the site, you agree to this use of cookies and data.
  • In Romania
  • List of Countries
  • For 7 days
  • Water Temperature
  • Satellite Maps
  • Weather Map
  • Weather Widgets
  • user-avatar
    Login

    Hourly Weather Lowech

    Today, 26 March, Tuesday

    Time Temperature Precipitation Wind Pressure Humidity
    00:00 +13°C° 0 mm 2 mps 730 mmHg 54%
    01:00 +13°C° 0 mm 2 mps 730 mmHg 56%
    02:00 +13°C° 0 mm 2 mps 730 mmHg 58%
    03:00 +11°C° 0 mm 3 mps 731 mmHg 60%
    04:00 +11°C° 0 mm 3 mps 731 mmHg 62%
    05:00 +10°C° 0 mm 4 mps 731 mmHg 64%
    06:00 +9°C° 0.1 mm 5 mps 732 mmHg 66%
    07:00 +9°C° 0.1 mm 5 mps 732 mmHg 67%
    08:00 +8°C° 0 mm 6 mps 733 mmHg 67%
    09:00 +8°C° 0.2 mm 5 mps 733 mmHg 67%
    10:00 +8°C° 0.2 mm 5 mps 733 mmHg 66%
    11:00 +9°C° 0.2 mm 5 mps 734 mmHg 66%
    12:00 +10°C° 0.6 mm 4 mps 734 mmHg 65%
    13:00 +10°C° 0.6 mm 3 mps 734 mmHg 64%
    14:00 +10°C° 0.6 mm 3 mps 734 mmHg 64%
    15:00 +10°C° 0.3 mm 2 mps 734 mmHg 63%
    16:00 +10°C° 0.3 mm 2 mps 735 mmHg 62%
    17:00 +12°C° 0.3 mm 1 mps 735 mmHg 62%
    18:00 +11°C° 0 mm 1 mps 735 mmHg 66%
    19:00 +10°C° 0 mm 1 mps 736 mmHg 71%
    20:00 +9°C° 0 mm 1 mps 736 mmHg 75%
    21:00 +9°C° 0 mm 1 mps 736 mmHg 70%
    22:00 +7°C° 0 mm 2 mps 737 mmHg 64%
    23:00 +7°C° 0 mm 3 mps 737 mmHg 59%

    Tomorrow, 27 March, Wednesday

    Time Temperature Precipitation Wind Pressure Humidity
    00:00 +7°C° 0 mm 3 mps 737 mmHg 58%
    01:00 +5°C° 0 mm 3 mps 738 mmHg 56%
    02:00 +5°C° 0 mm 3 mps 738 mmHg 55%
    03:00 +4°C° 0 mm 3 mps 738 mmHg 57%
    04:00 +4°C° 0 mm 3 mps 738 mmHg 59%
    05:00 +3°C° 0 mm 3 mps 738 mmHg 61%
    06:00 +4°C° 0 mm 4 mps 738 mmHg 59%
    07:00 +5°C° 0 mm 4 mps 739 mmHg 57%
    08:00 +5°C° 0 mm 5 mps 739 mmHg 55%
    09:00 +6°C° 0 mm 5 mps 739 mmHg 51%
    10:00 +8°C° 0 mm 6 mps 740 mmHg 47%
    11:00 +9°C° 0 mm 6 mps 740 mmHg 43%
    12:00 +9°C° 0 mm 6 mps 740 mmHg 42%
    13:00 +10°C° 0 mm 5 mps 740 mmHg 42%
    14:00 +10°C° 0 mm 5 mps 739 mmHg 41%
    15:00 +10°C° 0 mm 5 mps 739 mmHg 41%
    16:00 +11°C° 0 mm 4 mps 739 mmHg 42%
    17:00 +11°C° 0 mm 4 mps 739 mmHg 43%
    18:00 +9°C° 0 mm 3 mps 740 mmHg 47%
    19:00 +8°C° 0 mm 3 mps 741 mmHg 52%
    20:00 +7°C° 0 mm 2 mps 741 mmHg 57%
    21:00 +6°C° 0 mm 2 mps 742 mmHg 58%
    22:00 +6°C° 0 mm 2 mps 742 mmHg 58%
    23:00 +5°C° 0 mm 2 mps 743 mmHg 59%

    Day after tomorrow, 28 March, Thursday

    Time Temperature Precipitation Wind Pressure Humidity
    00:00 +6°C° 0 mm 1 mps 743 mmHg 60%
    01:00 +5°C° 0 mm 1 mps 743 mmHg 61%
    02:00 +5°C° 0 mm 1 mps 743 mmHg 62%
    03:00 +5°C° 0 mm 1 mps 744 mmHg 63%
    04:00 +4°C° 0 mm 1 mps 744 mmHg 65%
    05:00 +3°C° 0 mm 2 mps 744 mmHg 66%
    06:00 +4°C° 0 mm 2 mps 744 mmHg 64%
    07:00 +4°C° 0 mm 2 mps 744 mmHg 61%
    08:00 +4°C° 0 mm 3 mps 745 mmHg 59%
    09:00 +7°C° 0 mm 3 mps 745 mmHg 55%
    10:00 +8°C° 0 mm 3 mps 745 mmHg 51%
    11:00 +9°C° 0 mm 3 mps 745 mmHg 47%
    12:00 +10°C° 0 mm 3 mps 745 mmHg 44%
    13:00 +10°C° 0 mm 4 mps 744 mmHg 41%
    14:00 +11°C° 0 mm 4 mps 744 mmHg 39%
    15:00 +11°C° 0 mm 4 mps 744 mmHg 39%
    16:00 +10°C° 0 mm 4 mps 744 mmHg 40%
    17:00 +10°C° 0 mm 4 mps 743 mmHg 40%
    18:00 +8°C° 0 mm 3 mps 744 mmHg 44%
    19:00 +7°C° 0 mm 2 mps 744 mmHg 49%
    20:00 +5°C° 0 mm 2 mps 744 mmHg 53%
    21:00 +5°C° 0 mm 2 mps 745 mmHg 53%
    22:00 +4°C° 0 mm 2 mps 745 mmHg 52%
    23:00 +4°C° 0 mm 2 mps 745 mmHg 52%

    29 March, Friday

    Time Temperature Precipitation Wind Pressure Humidity
    00:00 +4°C° 0 mm 2 mps 746 mmHg 53%
    01:00 +3°C° 0 mm 2 mps 746 mmHg 53%
    02:00 +3°C° 0 mm 2 mps 746 mmHg 54%
    03:00 +3°C° 0 mm 2 mps 746 mmHg 56%
    04:00 +2°C° 0 mm 2 mps 746 mmHg 58%
    05:00 +2°C° 0 mm 2 mps 746 mmHg 60%
    06:00 +3°C° 0 mm 2 mps 746 mmHg 55%
    07:00 +3°C° 0 mm 2 mps 747 mmHg 50%
    08:00 +3°C° 0 mm 3 mps 747 mmHg 45%
    09:00 +4°C° 0 mm 3 mps 747 mmHg 43%
    10:00 +5°C° 0 mm 3 mps 747 mmHg 40%
    11:00 +5°C° 0 mm 4 mps 747 mmHg 38%
    12:00 +6°C° 0 mm 4 mps 746 mmHg 37%
    13:00 +7°C° 0 mm 4 mps 746 mmHg 36%
    14:00 +7°C° 0 mm 4 mps 745 mmHg 35%
    15:00 +7°C° 0 mm 4 mps 745 mmHg 36%
    16:00 +8°C° 0 mm 3 mps 745 mmHg 37%
    17:00 +8°C° 0 mm 3 mps 745 mmHg 39%
    18:00 +7°C° 0 mm 2 mps 745 mmHg 43%
    19:00 +6°C° 0 mm 1 mps 745 mmHg 47%
    20:00 +4°C° 0 mm 0 mps 745 mmHg 52%
    21:00 +5°C° 0 mm 1 mps 745 mmHg 52%
    22:00 +4°C° 0 mm 1 mps 746 mmHg 52%
    23:00 +4°C° 0 mm 1 mps 746 mmHg 52%

    30 March, Saturday

    Time Temperature Precipitation Wind Pressure Humidity
    00:00 +3°C° 0 mm 1 mps 745 mmHg 51%
    01:00 +3°C° 0 mm 1 mps 745 mmHg 51%
    02:00 +3°C° 0 mm 1 mps 745 mmHg 51%
    03:00 +3°C° 0 mm 1 mps 745 mmHg 51%
    04:00 +3°C° 0 mm 1 mps 745 mmHg 51%
    05:00 +3°C° 0 mm 1 mps 744 mmHg 51%
    06:00 +4°C° 0 mm 1 mps 744 mmHg 50%
    07:00 +5°C° 0 mm 1 mps 744 mmHg 49%
    08:00 +6°C° 0 mm 1 mps 745 mmHg 48%
    09:00 +6°C° 0 mm 2 mps 744 mmHg 46%
    10:00 +7°C° 0 mm 2 mps 744 mmHg 45%
    11:00 +8°C° 0 mm 2 mps 744 mmHg 43%
    12:00 +9°C° 0 mm 3 mps 743 mmHg 44%
    13:00 +10°C° 0 mm 3 mps 742 mmHg 45%
    14:00 +11°C° 0 mm 3 mps 741 mmHg 46%
    15:00 +10°C° 0 mm 2 mps 741 mmHg 49%
    16:00 +10°C° 0 mm 2 mps 741 mmHg 51%
    17:00 +11°C° 0 mm 1 mps 740 mmHg 54%
    18:00 +10°C° 0 mm 1 mps 740 mmHg 58%
    19:00 +9°C° 0 mm 1 mps 741 mmHg 61%
    20:00 +7°C° 0 mm 2 mps 741 mmHg 65%
    21:00 +7°C° 0 mm 2 mps 741 mmHg 65%
    22:00 +7°C° 0 mm 2 mps 740 mmHg 66%
    23:00 +8°C° 0 mm 1 mps 740 mmHg 67%

    31 March, Sunday

    Time Temperature Precipitation Wind Pressure Humidity
    00:00 +7°C° 0 mm 2 mps 740 mmHg 68%
    01:00 +7°C° 0 mm 2 mps 740 mmHg 70%
    02:00 +6°C° 0 mm 2 mps 739 mmHg 71%
    03:00 +6°C° 0.1 mm 2 mps 739 mmHg 72%
    04:00 +6°C° 0.1 mm 2 mps 739 mmHg 72%
    05:00 +6°C° 0.1 mm 2 mps 738 mmHg 73%
    06:00 +6°C° 0.1 mm 2 mps 738 mmHg 72%
    07:00 +7°C° 0.1 mm 2 mps 738 mmHg 72%
    08:00 +7°C° 0.1 mm 2 mps 738 mmHg 71%
    09:00 +8°C° 0 mm 2 mps 738 mmHg 67%
    10:00 +9°C° 0 mm 2 mps 737 mmHg 63%
    11:00 +12°C° 0 mm 2 mps 737 mmHg 59%
    12:00 +12°C° 0 mm 2 mps 736 mmHg 57%
    13:00 +13°C° 0 mm 2 mps 736 mmHg 55%
    14:00 +14°C° 0 mm 2 mps 735 mmHg 53%
    15:00 +14°C° 0.1 mm 2 mps 735 mmHg 55%
    16:00 +14°C° 0.1 mm 2 mps 735 mmHg 56%
    17:00 +14°C° 0.1 mm 2 mps 735 mmHg 58%
    18:00 +13°C° 0.2 mm 2 mps 735 mmHg 64%
    19:00 +12°C° 0.2 mm 1 mps 735 mmHg 71%
    20:00 +11°C° 0.2 mm 1 mps 735 mmHg 77%
    21:00 +10°C° 0 mm 1 mps 735 mmHg 79%
    22:00 +8°C° 0 mm 2 mps 735 mmHg 80%
    23:00 +8°C° 0 mm 2 mps 735 mmHg 82%
    Show more